Zurück zum Katalog

SL-8 R/B

AktivLEO
NORAD 6061·ROCKET BODY·🇷🇺 Russia

Gestartet Jun 23, 1972 von Plesetsk Cosmodrome

Loading…

Nächste Überflüge (nächste 24 Stunden)

TLE

AktuellSource: Space-Track

Epoche: Sep 14, 2026, 11:40 UTC

1 06061U 72043B   26257.48625704  .00000058  00000-0  25455-4 0  9995
2 06061  74.0543  59.4380 0018508  61.1735 299.1276 14.42198625844354

Verfolge SL-8 R/B in Echtzeit mit AllMySat

Download on the App Store